Theta_e
336 337 340 341 342 341 341 342 342 335 335 339 336 332 331 330 332 335 335 338 327 328 340 342 342 341 341 338 343 342 340 335 332 334 338 338 339 340 340 341 341 346 341
335 335 339 342 341 341 342 342 338 339 336 337 336 332 329 329 335 336 324 328 326 328 334 332 332 334 338 337 334 330 328 329 335 339 339 340 340 334 335 337 339 340 340
339 333 340 345 341 341 341 340 338 341 341 339 333 330 330 337 341 327 332 343 343 342 338 332 332 328 329 330 334 334 333 339 336 334 339 347 342 339 332 335 340 339 338
336 337 340 342 340 341 341 341 337 342 341 342 342 339 339 340 334 340 341 343 343 343 342 343 340 339 339 338 340 341 341 340 340 338 335 341 346 336 333 331 333 335 337
338 340 340 341 340 341 341 342 342 340 342 341 339 339 341 337 343 345 344 342 340 338 336 335 339 343 342 342 343 342 341 341 339 341 340 334 340 336 330 331 331 332 333
339 340 341 343 342 341 341 341 342 341 340 341 339 337 338 344 342 335 331 331 330 331 331 336 342 343 344 345 344 343 342 339 339 339 339 338 334 336 336 333 334 331 331
339 340 342 344 342 342 341 342 342 338 342 340 340 340 342 335 331 328 327 338 333 325 326 336 343 340 339 340 341 340 340 342 341 339 337 337 335 336 337 339 336 335 332
338 338 340 340 341 342 338 335 333 339 339 338 341 341 337 334 331 331 333 339 333 327 326 326 339 341 339 340 341 342 342 341 342 341 341 340 338 339 340 340 340 339 338
339 337 340 339 340 340 337 336 338 340 340 340 339 335 334 332 333 335 336 336 335 334 332 326 325 333 339 339 341 342 343 343 342 340 340 342 342 342 343 343 343 342 342
338 338 338 340 341 338 338 335 335 336 340 338 338 339 333 333 335 337 337 336 334 335 335 334 334 333 336 339 342 343 344 344 341 340 340 341 342 343 344 343 342 340 341
337 337 338 341 342 338 338 334 333 337 336 333 337 335 333 334 336 337 336 335 334 335 336 335 336 337 339 341 343 343 344 341 343 342 339 340 342 344 344 343 342 341 340
338 337 340 340 339 336 334 330 329 327 330 332 330 332 333 335 337 337 336 336 337 338 339 341 342 343 343 343 344 342 338 332 333 334 339 341 342 343 344 341 336 333 334
340 339 340 340 336 335 330 329 326 328 328 329 332 334 333 335 336 336 338 340 342 345 346 345 344 343 342 342 341 340 334 333 332 333 337 340 343 344 341 336 331 329 331
338 338 338 337 334 333 329 331 342 341 333 336 336 333 333 335 335 337 341 344 345 345 344 343 341 338 339 335 335 338 337 337 337 337 338 341 342 341 340 341 337 333 336
335 335 335 337 334 332 329 335 342 343 342 338 339 338 334 336 338 342 344 345 344 343 341 343 345 344 344 337 336 341 341 339 337 338 338 341 341 342 343 341 340 334 341
335 334 333 333 334 331 331 338 336 342 340 341 341 341 338 341 342 342 343 344 343 344 341 343 345 345 345 341 338 339 338 338 338 336 340 342 342 342 343 341 341 333 335
331 332 332 333 333 332 332 340 339 341 340 339 339 341 340 341 340 340 341 341 343 344 343 342 345 345 344 343 339 339 339 341 339 339 341 342 344 342 343 343 341 332 333
329 331 330 332 334 333 335 337 338 339 337 338 336 337 340 340 338 338 339 340 343 344 344 344 345 341 343 340 338 341 341 340 340 340 341 343 345 344 344 344 340 333 331
327 329 330 331 333 336 339 337 337 337 339 338 337 339 342 340 337 340 340 340 341 344 343 344 345 344 344 338 338 338 337 339 337 340 342 343 343 344 345 341 339 336 331
327 327 329 330 332 336 341 342 338 335 338 341 338 341 341 336 337 335 339 341 341 343 343 345 343 344 344 345 340 336 337 341 341 339 339 342 342 342 340 339 339 339 333
330 328 328 330 337 340 342 342 341 338 341 342 340 343 342 339 343 344 340 340 339 342 343 346 343 341 344 346 345 340 341 339 340 341 342 343 344 339 337 340 339 340 337
330 332 332 335 339 340 342 341 341 340 342 341 339 342 340 340 342 339 337 341 340 340 343 344 343 345 345 346 345 345 345 343 343 342 337 342 342 342 341 338 338 340 339
335 333 336 335 338 342 342 341 341 341 341 340 339 342 343 341 344 342 341 341 343 343 344 344 342 344 347 346 346 344 347 345 345 340 337 341 338 336 341 338 336 340 340
339 338 339 338 337 339 342 340 341 341 342 342 342 341 343 341 343 344 339 341 337 345 343 344 346 348 346 346 347 344 344 343 347 341 340 338 339 338 342 339 339 339 340
340 340 340 340 339 339 340 341 342 342 341 342 342 343 344 342 342 343 342 339 338 346 345 342 341 342 345 343 346 346 347 345 343 344 345 342 341 341 342 338 339 338 340
342 341 341 341 341 341 341 342 341 341 342 342 343 343 343 342 340 345 344 343 341 342 343 344 342 343 343 342 343 344 344 346 345 345 343 344 344 342 342 339 336 339 340
Wind_Speed
17 13 11 11 11 10 10 11 9 10 9 10 11 12 10 8 7 6 7 8 8 8 10 10 10 10 9 9 10 9 7 8 9 9 8 8 7 7 7 7 9 8 10
18 11 10 10 10 10 9 9 8 8 9 10 9 9 8 6 6 8 9 12 13 11 10 9 10 10 10 10 9 9 10 11 11 9 7 7 8 7 6 6 6 7 8
17 10 9 8 10 10 9 9 8 7 9 9 8 9 9 9 8 10 13 12 12 11 12 13 13 13 13 12 13 12 12 11 9 7 8 6 6 6 5 5 5 6 7
15 12 10 9 7 10 8 7 8 7 10 11 12 11 11 11 11 12 12 12 13 12 13 12 13 14 13 14 13 12 11 10 10 9 7 6 3 3 4 3 3 4 5
12 10 10 10 10 8 9 8 8 9 12 12 13 12 11 13 12 12 12 12 12 12 12 12 13 12 12 11 10 9 8 7 6 7 7 6 4 2 3 2 2 2 3
11 10 9 11 11 10 12 11 10 10 14 12 12 13 14 13 11 11 11 11 11 11 11 12 13 12 12 11 9 9 8 8 9 8 5 5 5 3 4 3 1 2 2
12 12 10 10 12 13 13 12 12 10 13 11 13 14 13 12 12 13 13 13 11 12 10 11 11 10 9 8 8 9 9 10 9 10 8 5 4 4 3 1 1 1 2
10 11 11 9 10 11 11 17 17 10 13 14 14 13 12 12 13 14 14 14 13 11 10 10 9 8 7 6 7 8 9 10 10 9 9 7 5 3 2 2 3 3 4
11 10 10 10 9 12 13 19 12 11 13 14 14 12 11 13 14 14 13 13 13 11 11 10 8 7 5 5 6 8 9 11 10 9 9 9 5 0 2 2 5 6 6
11 13 12 10 11 14 15 14 14 8 12 12 13 11 11 12 13 12 12 11 11 9 9 9 7 5 5 4 3 5 7 10 10 10 8 9 8 4 4 5 5 7 9
12 15 14 12 13 15 15 14 10 8 9 11 10 10 11 12 12 11 10 10 10 9 10 8 6 5 4 2 4 6 4 9 11 12 10 9 8 4 5 6 8 9 10
13 16 16 15 15 16 15 12 9 10 11 11 10 10 11 12 11 10 9 10 9 9 9 8 6 5 6 6 5 5 4 4 13 14 13 12 10 6 5 6 8 9 10
14 17 18 18 17 17 15 11 12 12 12 11 10 10 11 11 10 9 9 10 9 7 6 6 7 6 5 9 6 3 1 11 20 19 11 13 9 5 3 4 7 10 9
15 16 19 19 18 18 14 14 14 12 11 9 9 10 10 10 10 9 8 8 7 6 6 6 5 6 5 8 15 6 6 16 14 9 6 8 6 3 2 4 8 12 8
14 15 17 19 19 18 13 12 11 9 10 9 9 9 10 10 10 7 6 5 4 3 3 4 5 6 7 6 11 10 7 3 7 7 3 5 4 2 1 5 9 12 7
13 14 16 19 20 18 12 10 10 9 9 7 6 8 9 8 6 5 5 2 1 1 0 1 5 8 11 9 11 11 7 8 9 5 2 2 2 1 2 6 9 12 9
12 13 13 17 19 18 12 10 9 9 7 3 4 6 6 6 3 4 2 1 1 0 2 3 5 10 10 7 8 9 10 11 9 4 0 4 3 2 4 7 9 12 10
13 16 16 18 21 14 12 9 9 9 6 3 2 4 6 5 1 4 2 3 3 2 2 2 5 8 10 8 3 7 9 8 6 3 1 2 1 4 5 6 8 11 10
14 16 17 17 16 14 11 9 11 8 6 3 2 4 6 5 3 1 4 4 3 2 1 2 4 6 8 7 1 2 7 8 8 7 5 3 3 4 5 6 6 10 11
15 17 17 16 15 12 11 10 10 10 7 3 4 4 3 3 4 2 7 6 5 3 2 3 4 6 7 8 5 1 5 6 1 0 4 3 2 2 3 2 4 8 10
19 19 18 17 15 14 13 12 11 10 9 5 5 1 3 3 2 3 6 3 5 5 5 2 4 8 8 8 7 5 5 3 5 3 3 2 2 0 1 2 2 5 8
22 20 20 19 18 16 15 12 10 9 8 8 6 3 4 3 0 2 6 3 4 4 5 4 3 5 6 6 10 5 3 3 4 5 3 2 2 1 1 2 4 3 7
23 23 21 21 21 17 16 15 12 11 11 9 7 6 4 4 2 2 3 7 4 3 2 2 2 3 5 5 8 5 3 3 2 4 5 1 2 2 1 5 4 2 5
24 21 20 19 20 19 16 16 13 13 9 5 6 6 4 5 4 3 2 7 4 4 3 1 1 2 3 5 6 5 7 6 1 1 4 3 4 1 3 1 8 2 3
26 24 21 20 19 19 17 15 13 12 10 9 7 6 5 6 6 4 3 3 7 5 2 1 3 2 3 3 4 6 8 7 5 3 3 3 4 5 2 2 4 2 2
27 27 24 22 22 20 19 17 15 14 11 11 9 7 6 5 7 6 5 4 5 4 3 2 2 2 3 3 4 5 6 6 4 4 5 6 3 2 2 3 4 2 2
Wind_Direction
165 150 143 132 135 133 128 120 119 132 151 150 142 135 126 117 109 107 107 117 116 130 133 126 123 117 122 118 116 120 113 106 102 105 104 105 106 106 109 113 116 112 127
169 153 153 152 136 139 124 118 111 128 143 154 153 144 137 128 114 107 105 103 98 107 118 118 119 124 117 113 114 114 105 99 94 93 102 104 100 96 107 115 126 134 131
172 163 161 154 163 155 132 115 118 132 137 143 150 149 141 127 122 108 108 104 102 104 97 99 98 104 107 107 101 96 100 95 88 84 93 107 95 74 77 114 128 141 148
158 166 164 154 156 164 167 140 117 131 132 127 132 128 126 127 118 110 112 115 110 107 107 107 107 103 103 106 103 99 92 87 78 71 75 86 88 69 66 112 137 153 157
146 148 154 147 158 150 136 137 143 123 127 120 112 128 130 121 115 112 107 108 109 108 105 107 108 104 106 103 97 87 78 65 54 44 53 60 78 46 71 90 125 157 163
147 144 142 140 145 146 151 148 130 121 137 120 126 118 120 113 109 107 102 105 108 109 107 112 118 110 101 103 91 78 67 58 44 27 27 39 60 57 64 76 109 174 193
148 145 135 135 132 134 137 149 145 104 126 135 120 115 109 106 101 100 102 94 94 101 115 127 128 114 107 101 92 80 64 64 59 47 37 33 36 52 41 21 29 250 235
149 148 140 134 125 125 116 119 107 130 129 126 116 114 115 107 102 102 102 101 101 105 111 125 139 132 120 113 98 85 71 68 59 47 42 31 12 35 31 358 309 291 272
164 168 146 139 145 135 124 122 124 129 123 117 111 126 118 110 106 104 99 97 101 104 101 111 126 150 149 131 111 76 58 46 40 32 30 16 359 291 337 351 321 303 286
182 171 162 150 146 142 137 130 130 121 120 122 133 124 117 110 105 101 97 92 100 100 103 111 123 140 151 122 71 57 41 35 24 37 24 4 348 21 332 326 313 311 298
161 162 156 144 145 145 142 144 147 126 122 130 127 124 119 114 107 104 99 102 107 99 93 101 103 93 84 63 25 1 7 17 352 1 352 335 324 332 318 315 305 306 297
148 158 152 152 149 145 134 134 127 120 132 134 130 127 123 116 111 106 102 100 100 93 89 83 71 42 18 325 316 1 315 303 301 321 332 331 313 315 331 323 317 311 295
148 152 158 155 155 145 133 121 116 120 125 128 124 121 120 115 114 107 97 97 89 80 67 59 39 17 8 20 9 337 221 279 294 292 295 323 313 312 322 326 338 328 304
153 149 155 160 159 151 135 126 121 117 125 122 117 119 122 122 120 110 100 90 90 72 67 53 40 32 2 317 308 275 298 318 304 278 246 318 302 306 331 344 357 349 316
152 155 156 159 161 157 147 135 125 119 122 117 114 112 129 128 124 108 104 102 95 69 58 36 6 350 337 335 355 341 337 332 16 174 252 273 270 270 14 353 355 349 335
161 163 159 160 162 161 155 146 138 130 126 123 122 119 139 132 123 114 113 119 101 58 172 320 337 340 332 358 351 14 50 22 47 127 166 256 233 317 14 358 352 350 338
150 155 160 160 164 163 165 157 148 144 138 124 129 140 141 150 137 154 140 204 187 281 269 268 336 342 346 342 2 38 38 42 43 51 360 226 229 343 7 351 348 355 353
157 150 155 158 160 169 168 168 167 163 158 153 140 165 174 166 242 191 208 212 223 272 276 293 346 357 353 350 360 57 53 47 40 20 256 221 309 332 344 344 354 357 2
165 164 160 162 168 169 172 180 182 173 171 171 171 158 166 192 200 185 209 206 219 244 266 292 343 346 359 10 1 62 47 64 54 24 333 283 303 324 330 330 0 3 10
183 172 170 171 176 187 187 188 195 199 208 179 159 139 169 163 194 287 216 210 223 257 268 307 343 353 358 11 22 323 19 45 85 259 339 317 295 330 307 296 357 7 17
200 197 190 194 193 190 189 184 185 195 196 195 182 231 183 194 210 299 187 194 228 247 249 291 336 347 351 357 4 31 43 39 41 47 302 265 262 177 337 301 337 13 21
212 210 207 202 201 198 197 198 203 207 193 189 201 205 180 163 161 134 175 203 202 232 241 270 329 358 3 30 23 42 26 14 310 333 354 230 238 252 233 317 307 18 29
217 213 216 211 209 210 207 212 214 207 207 219 215 209 175 179 151 88 192 202 197 182 192 232 333 345 11 17 26 41 26 29 346 346 7 154 286 307 169 357 346 135 42
211 214 211 214 213 215 212 209 221 206 206 227 196 191 205 197 169 130 117 181 161 161 137 111 316 359 2 22 24 48 50 46 51 20 42 33 49 65 170 75 35 142 61
216 212 211 211 216 216 214 210 205 212 227 236 214 212 213 203 195 174 161 159 191 159 166 77 34 0 327 358 5 23 30 25 29 73 85 41 30 77 150 279 4 138 91
219 218 215 215 217 218 218 215 218 222 221 226 229 229 219 204 202 195 184 182 187 198 231 272 298 326 331 334 353 14 22 40 17 27 41 35 41 339 340 324 357 192 172